Location: Bailleul
(50.3375°N, 2.8513°E)
Time: 04:24:19
(UTC+00:00)

Cosmos 2227 Rocket - Pass Details

Date: 19 April 2021
Orbit: 840 x 844 km, 71.0° (Epoch: 09 May)

Event Time Altitude Azimuth Distance (km) Brightness Sun altitude
Exits shadow 19:40:20 - 137° (SE) 2,584 4.1 -8.2°
Reaches altitude 10° 19:40:53 10° 132° (SE) 2,460 4.0 -8.3°
Maximum altitude 19:44:05 16° 97° (E) 2,093 3.7 -8.7°
Drops below altitude 10° 19:47:17 10° 63° (ENE) 2,470 4.3 -9.1°
Sets 19:50:42 0° 42° (NE) 3,410 5.2 -9.6°
